Regional Weather Roundup
Issued by NWS

Home | Current Version | Previous Version | Graphics & Text | Print | Product List | Glossary On
Versions: 1 2 3 4 5 6 7 8 9 10 11 12 13 14 15 16 17 18 19 20 21 22 23 24 25 26 27 28 29 30 31 32 33 34 35 36 37 38 39 40 41 42 43 44 45 46 47 48 49 50
000
ASUS45 KSLC 241510
RWRUT

UTAH REGIONAL WEATHER ROUNDUP
NATIONAL WEATHER SERVICE SALT LAKE CITY UT
900 AM MDT THU JUL 24 2014

UTZ001>011-023>025-241600-

NORTHERN UTAH

CITY           SKY/WX    TMP DP  RH WIND       PRES   REMARKS
HILL AFB       MOSUNNY   78  44  30 NW5       30.09R
LOGAN          NOT AVBL
OGDEN          MOSUNNY   76  47  35 VRB3      30.06R
PROVO AIRPORT  PTSUNNY   82  48  30 SE12G17   30.12R
SALT LAKE CITY MOSUNNY   82  38  20 NW9       30.04R
VERNAL         LGT RAIN  78  48  34 SW18G28   30.22R
WENDOVER       SUNNY     82  30  15 N6        30.07R
HEBER CITY     CLOUDY    79  43  27 S17       30.17F
WEST JORDAN    SUNNY     86  55  35 S21G29    30.08R

$$

UTZ012>022-026-027-241600-

SOUTHERN UTAH

CITY           SKY/WX    TMP DP  RH WIND       PRES   REMARKS
BRYCE CANYON   CLOUDY    67  49  52 W3        30.41R
CEDAR CITY     MOSUNNY   80  35  19 SW9       30.19R
MILFORD        MOSUNNY   84  33  16 S14       30.12R
MOAB/CYNLANDS  PTSUNNY   84  49  29 SE6       30.15R
PRICE          CLOUDY    72  53  51 NW8       30.29R
ST GEORGE      CLOUDY    91  41  17 E13       30.00R

$$

REGIONAL REPORTS     COLORADO/ARIZONA

CITY           SKY/WX    TMP DP  RH WIND       PRES   REMARKS
CRAIG, CO      PTSUNNY   67  51  56 CALM      30.29R
GRAND JUNCTION LGT RAIN  79  51  37 SE13      30.21R
RIFLE          MOSUNNY   72  50  45 CALM      30.27S
MONTROSE       PTSUNNY   76  59  55 MISG      30.32R
CORTEZ         SUNNY     80  50  34 S7G16     30.32S
PAGE, AZ       PTSUNNY   86  51  29 S7        30.14S
GRAND CANYON   PTSUNNY   75  50  41 S3        30.35R HAZE
KINGMAN        MOSUNNY   87  34  15 CALM      30.05R
FLAGSTAFF      CLOUDY    67  52  58 SW6       30.40R

$$

REGIONAL REPORTS    NEVADA/IDAHO/WYOMING

CITY           SKY/WX    TMP DP  RH WIND       PRES   REMARKS
LAS VEGAS, NV  MOSUNNY   94  30  10 S13       29.87R
ELY            SUNNY     70  25  18 SE5       30.21S
ELKO           SUNNY     71  31  22 S6        30.18R
POCATELLO, ID  SUNNY     68  44  42 SW23G29   30.13R
BURLEY         SUNNY     65  43  44 SW16G29   30.16R
EVANSTON, WY   MOSUNNY   75  39  27 SW16G25   30.25S
ROCK SPRINGS   PTSUNNY   79  40  24 S21G28    30.25R

$$


USA.gov is the U.S. government's official web portal to all federal, state and local government web resources and services.